ATLAS 5 CENTAUR DEB, 44675

Orbit data source: Space-Track

ATLAS 5 CENTAUR DEB, 44675 is space debris in HEO originally from a launch on Wed, 17 Oct 2018 UTC launched from the Air Force Eastern Test Range (AFETR). Debris objects in space refer to the collection of defunct objects orbiting the Earth. Examples of debris include non-operational satellites, rocket bodies, and fragments generated from explosions, collisions, or faulty payload assembly.

Loading next visibility...
Identifier
44675, 2018-079AM
Orbit
HEO
Country
Flag of USUS
Related business
Flag of USUnited Launch Alliance/Lockheed Martin (US)
Manufacturer
ULA Decatur
Mission
Spacecraft
Bus & Motor
Unknown
Mass
Unknown
Launch date (UTC)
2018-10-17 (8 years ago)
Launch vehicle
Unknown
Launch site
Air Force Eastern Test Range (AFETR)
Object type
Payload
Rocket body
Debris
Shape & HBR
Unknown shape, 1.1 m
Radar Cross Section
Medium (>0.1 m² and <1 m²)

Expand to show TLE details & history
Last TLE update: 2 days ago

TLE from 2 days ago
0 ATLAS 5 CENTAUR DEB
1 44675U 18079AM  26190.78812051 -.00000094  00000-0  00000-0 0  9995
2 44675  13.4459  35.9060 4669205 311.0113  16.9879  1.80468679 47368
Epoch: 2026-07-09T18:54Z
TLE epoch observation values (Epoch: 2026-07-09T18:54:53.612Z)
Latitude
0.00011°
Longitude
-175.54548°
Altitude
10,707.189 km
Speed
5.716 km/s
True Right ascension
02h 23m 36s
True Declination
0° 00' 00"
Sunlit
Object was in daylight at epoch
Visualization orbit readout
Latitude
Unknown
Longitude
Unknown
Altitude
Unknown
Speed
Unknown
Apparent Right ascension
Unknown
Apparent Declination
Unknown
Sunlit
N/A
Visualization observer readout
Local Sidereal Time
03:13:11
Azimuth
Unknown
Elevation
Unknown
Doppler factor
Unknown
Orbital elements
Apogee altitude
35,427.877 km
Perigee altitude
8,814.185 km
Semi-major axis
28,499.168 km
Eccentricity
0.46692
Inclination
13.4459°
RAAN
35.906°
Arg. of periapsis
311.0113°
True anomaly
48.83306°
Mean anomaly
16.9879°
Eccentric anomaly
30.61015°
Mean motion
0.45112 °/min
Orbital period
798.01 mins
BSTAR
0
Loading maneuver chart data...
Computing Atmospheric mass density...

Documentation

Showing up to 5 results
|